Regional Weather Roundup
Issued by NWS Midland/Odessa, TX

Skip options and go directly to product.
Home | Oldest Version | Next Version | Current Version | All | Text Only | Save Text | Print | Product List | Glossary On

Skip product version selection by date and time.   
147
ASUS44 KMAF 240501
RWRMAF
MIDLAND AREA WEATHER ROUNDUP
NATIONAL WEATHER SERVICE MIDLAND TX
1200 AM CDT WED AUG 24 2016

...IN SOUTHWEST TEXAS AND SOUTHEAST NEW MEXICO...

CITY           SKY/WX    TMP DP  RH WIND       PRES   REMARKS
ALPINE         CLEAR     69  65  87 CALM      30.24S
ANDREWS        NOT AVBL
ARTESIA        CLOUDY    66  66 100 SE12      30.12F
BIG SPRING     CLOUDY    80  65  61 S13       30.13S
CARLSBAD       LGT RAIN  66  64  93 NE10      30.14R
DRYDEN           N/A     81  65  58 SE14      30.07R
FORT STOCKTON  CLEAR     77  64  64 SE9       30.11S
GUAD PASS      CLOUDY    67  62  84 NE5       30.26R
HOBBS          CLOUDY    72  61  68 SE12G25   30.16R
MARFA          CLOUDY   N/A N/A N/A SE3       30.23
MIDLAND AIRPK  CLOUDY    81  63  53 S14       30.14R
MIDLAND INTL   CLOUDY    77  67  71 SW10      30.13R
ODESSA         CLOUDY    74  68  81 SW7       30.15R
PECOS          TSTM      73  67  82 SE20G29   30.07F
PRESIDIO       NOT AVBL
SEMINOLE       DRIZZLE   71  61  71 SW17G25   30.16S
SNYDER           N/A     80  63  57 S13       30.11R
WINK           CLOUDY    72  65  78 E7        30.11R
$$
...OTHER STATIONS IN TEXAS...

CITY           SKY/WX    TMP DP  RH WIND       PRES   REMARKS
ABILENE        CLEAR     80  66  62 S17G25    30.09R
AMARILLO       PTCLDY    72  60  66 S13       30.07R
AUSTIN         CLEAR     77  72  84 S7        30.12R
BROWNSVILLE    CLEAR     81  77  88 SE5       30.10S
CORPUS CHRISTI CLEAR     82  77  84 SE9       30.11R
DALLAS FTW     CLEAR     83  72  69 S14       30.07S
DEL RIO        CLEAR     80  65  59 E10       30.05R
EL PASO        CLOUDY    68  62  81 SE7       30.12S
HOUSTON INT    PTCLDY    81  77  88 S6        30.13S
LUBBOCK        CLOUDY    72  64  76 SE10      30.09R
SAN ANGELO     CLEAR     79  64  60 S5        30.10R
SAN ANTONIO    CLEAR     79  70  74 SE15      30.13R
WACO           CLEAR     82  73  74 S15       30.10R
WICHITA FALLS  NOT AVBL
$$
...OTHER LOCATIONS IN NEW MEXICO...

CITY           SKY/WX    TMP DP  RH WIND       PRES   REMARKS
ALAMAGORDO     CLOUDY    75  59  57 S10       30.13R
ALBUQUERQUE    MOCLDY    69  47  45 N9        30.23R
CANNON AFB     CLOUDY    74  58  57 SW21G28   30.12R
CLOVIS         CLOUDY    72  57  60 S9        30.12R
HOLLOMAN AFB   CLOUDY    77  59  53 S16       30.10R
ROSWELL        CLOUDY    66  61  84 S15       30.12R
RUIDOSO          N/A     59  55  88 S10       30.30S
SANTA FE       PTCLDY    59  48  67 CALM      30.25R
TRUTH OR CONSE CLEAR     72  45  37 NW13      30.16R
TUCUMCARI      CLOUDY    77  62  59 S10       30.06S
$$

USA.gov is the U.S. government's official web portal to all federal, state and local government web resources and services.